Change the Weather History Date:

Monday, December 10, 2012

  Actual Average (KAVL) Record (KAVL)
Temperature  
Mean Temperature 59 °F 40 °F  
Max Temperature 62 °F 51 °F 74 °F (2007)
Min Temperature 56 °F 30 °F 3 °F (1917)
Degree Days  
Heating Degree Days 6 25  
Month to date heating degree days 235  
Since 1 July heating degree days 1102  
Cooling Degree Days 0 0  
Month to date cooling degree days 0  
Year to date cooling degree days 863  
Growing Degree Days 9 (Base 50)    
Moisture  
Dew Point 57 °F    
Average Humidity 95    
Maximum Humidity 99    
Minimum Humidity 82    
Precipitation  
Precipitation 0.14 in 0.13 in 1.97 in (2008)
Month to date precipitation 1.30  
Year to date precipitation 43.28  
Snow  
Snow 0.00 in 0.00 in 2.00 in (1876)
Month to date snowfall 0.1  
Since 1 July snowfall 0.2  
Snow Depth -    
Sea Level Pressure  
Sea Level Pressure 29.80 in    
Wind  
Wind Speed 5 mph (SSW)    
Max Wind Speed 13 mph    
Max Gust Speed 20 mph    
Visibility 8 miles    
Events Rain    
T = Trace of Precipitation, MM = Missing Value Source: NWS Daily Summary

Daily Weather History Graph

Daily Weather History Graph

Search for Another Location

Airport or City:

Trip Planner

Search our weather history database for the weather conditions in past years. The results will help you decide how hot, cold, wet, or windy it might be!

Date:

Astronomy

Dec. 10, 2012 Rise Set
Actual Time 7:26 AM EST 5:15 PM EST
Civil Twilight 6:58 AM EST 5:43 PM EST
Nautical Twilight 6:26 AM EST 6:15 PM EST
Astronomical Twilight 5:55 AM EST 6:46 PM EST
Moon 4:12 AM EST (12/10) 3:00 PM EST (12/10)
Length of Visible Light 10h 45m
Length of Day
9h 48m
Waning Crescent, 10% of the Moon is Illuminated
Dec 10
Waning Crescent
Dec 13
New
Dec 20
First Quarter
Dec 28
Full
Jan 4
Last Quarter

Hourly Weather History & Observations

Time (EST) Temp. Dew Point Humidity Pressure Visibility Wind Dir Wind Speed Gust Speed Precip Events Conditions
12:15 AM 58.6 °F 57.9 °F 97% 29.99 in 5.0 mi SSW 3.5 mph - N/A   Overcast
12:35 AM 58.5 °F 57.9 °F 98% 29.98 in 5.0 mi South 3.5 mph - N/A   Overcast
12:55 AM 58.6 °F 57.7 °F 97% 29.97 in 5.0 mi South 3.5 mph - N/A   Overcast
1:15 AM 58.5 °F 57.6 °F 97% 29.96 in 5.0 mi SSE 4.6 mph - N/A   Overcast
1:35 AM 58.3 °F 57.4 °F 97% 29.95 in 7.0 mi South 3.5 mph - N/A   Overcast
1:55 AM 58.5 °F 57.2 °F 96% 29.94 in 7.0 mi Calm Calm - N/A   Overcast
2:15 AM 58.1 °F 57.2 °F 97% 29.94 in 7.0 mi Calm Calm - N/A   Overcast
2:35 AM 57.6 °F 56.5 °F 96% 29.93 in 7.0 mi South 4.6 mph - N/A   Overcast
2:55 AM 57.2 °F 56.3 °F 97% 29.92 in 7.0 mi South 3.5 mph - N/A   Scattered Clouds
3:15 AM 57.6 °F 56.5 °F 96% 29.92 in 7.0 mi Calm Calm - N/A   Mostly Cloudy
3:55 AM 58.1 °F 56.8 °F 96% 29.92 in 7.0 mi Calm Calm - N/A   Overcast
4:15 AM 57.6 °F 56.7 °F 97% 29.91 in 7.0 mi Calm Calm - N/A   Mostly Cloudy
4:35 AM 57.6 °F 56.5 °F 96% 29.89 in 7.0 mi Calm Calm - N/A   Mostly Cloudy
4:55 AM 57.2 °F 56.3 °F 97% 29.88 in 7.0 mi SSE 3.5 mph - N/A   Clear
5:15 AM 56.8 °F 56.1 °F 97% 29.88 in 5.0 mi South 4.6 mph - N/A   Scattered Clouds
5:35 AM 56.5 °F 56.3 °F 99% 29.87 in 5.0 mi South 4.6 mph - N/A   Scattered Clouds
5:55 AM 56.7 °F 56.3 °F 99% 29.86 in 5.0 mi SSE 5.8 mph - N/A   Clear
6:15 AM 56.3 °F 55.8 °F 98% 29.85 in 4.0 mi SSE 6.9 mph - N/A   Clear
6:35 AM 56.7 °F 56.3 °F 99% 29.85 in 5.0 mi SSE 4.6 mph - N/A   Mostly Cloudy
6:55 AM 57.4 °F 56.5 °F 97% 29.85 in 7.0 mi Calm Calm - N/A   Overcast
7:15 AM 57.7 °F 56.3 °F 95% 29.85 in 10.0 mi SSW 4.6 mph - N/A   Overcast
7:35 AM 58.1 °F 56.3 °F 94% 29.85 in 10.0 mi South 5.8 mph - N/A   Overcast
7:55 AM 58.1 °F 56.3 °F 94% 29.84 in 10.0 mi South 3.5 mph - N/A   Overcast
8:15 AM 58.1 °F 56.3 °F 94% 29.84 in 7.0 mi South 5.8 mph - N/A   Overcast
8:35 AM 58.1 °F 56.8 °F 96% 29.83 in 7.0 mi South 4.6 mph - N/A   Overcast
8:55 AM 58.1 °F 56.8 °F 96% 29.83 in 5.0 mi South 8.1 mph - N/A Rain Light Rain
9:15 AM 58.1 °F 56.8 °F 96% 29.83 in 5.0 mi South 8.1 mph - N/A   Overcast
9:35 AM 58.1 °F 56.7 °F 95% 29.83 in 4.0 mi South 9.2 mph 16.1 mph N/A   Drizzle
9:55 AM 57.7 °F 56.8 °F 97% 29.83 in 3.0 mi South 9.2 mph - N/A   Overcast
10:15 AM 58.1 °F 57.2 °F 97% 29.82 in 2.5 mi South 10.4 mph - N/A   Overcast
10:35 AM 58.1 °F 57.2 °F 97% 29.82 in 2.0 mi South 9.2 mph 17.3 mph N/A   Overcast
10:55 AM 58.5 °F 57.6 °F 97% 29.82 in 4.0 mi South 8.1 mph - N/A   Overcast
11:35 AM 59.5 °F 57.6 °F 93% 29.81 in 10.0 mi SSW 5.8 mph - N/A   Overcast
11:55 AM 59.9 °F 57.6 °F 92% 29.81 in 10.0 mi SSW 5.8 mph - N/A   Overcast
12:15 PM 59.9 °F 57.7 °F 93% 29.79 in 7.0 mi SSW 6.9 mph 16.1 mph N/A   Overcast
12:35 PM 60.4 °F 57.7 °F 91% 29.77 in 10.0 mi South 6.9 mph - N/A   Overcast
12:55 PM 61.0 °F 57.9 °F 90% 29.76 in 10.0 mi SSW 8.1 mph - N/A   Overcast
1:15 PM 61.0 °F 57.6 °F 88% 29.76 in 10.0 mi SSW 12.7 mph 19.6 mph N/A   Overcast
1:35 PM 60.8 °F 57.6 °F 89% 29.75 in 10.0 mi SSW 6.9 mph 17.3 mph N/A   Overcast
1:55 PM 61.5 °F 57.4 °F 86% 29.74 in 10.0 mi SW 8.1 mph 16.1 mph N/A   Overcast
2:15 PM 62.1 °F 57.4 °F 85% 29.74 in 10.0 mi SSW 5.8 mph - N/A   Overcast
2:35 PM 62.6 °F 57.2 °F 82% 29.73 in 10.0 mi SSW 3.5 mph - N/A   Overcast
2:55 PM 60.3 °F 58.3 °F 93% 29.73 in 2.5 mi SSW 3.5 mph - 0.08 in Rain Rain
3:15 PM 59.9 °F 58.8 °F 96% 29.72 in 7.0 mi South 4.6 mph - 0.01 in Rain Rain
3:35 PM 59.5 °F 58.6 °F 97% 29.73 in 5.0 mi Calm Calm - 0.01 in Rain Light Rain
3:55 PM 59.9 °F 59.0 °F 97% 29.73 in 5.0 mi Calm Calm - 0.03 in Rain Light Rain
4:15 PM 59.5 °F 59.0 °F 98% 29.74 in 4.0 mi South 5.8 mph - 0.01 in Rain Light Rain
4:35 PM 59.4 °F 58.6 °F 97% 29.74 in 7.0 mi South 6.9 mph - 0.02 in Rain Light Rain
4:55 PM 59.2 °F 58.3 °F 97% 29.74 in 10.0 mi SSW 5.8 mph - 0.02 in Rain Light Rain
5:15 PM 59.0 °F 58.1 °F 97% 29.73 in 10.0 mi South 6.9 mph - N/A Rain Light Rain
5:35 PM 58.5 °F 57.4 °F 96% 29.72 in 10.0 mi South 4.6 mph - 0.01 in   Mostly Cloudy
5:55 PM 58.3 °F 57.2 °F 96% 29.70 in 10.0 mi South 9.2 mph - 0.01 in   Mostly Cloudy
6:15 PM 58.3 °F 57.2 °F 96% 29.70 in 10.0 mi South 9.2 mph - N/A   Mostly Cloudy
6:35 PM 58.6 °F 57.4 °F 96% 29.74 in 10.0 mi SW 5.8 mph - N/A   Overcast
6:55 PM 58.8 °F 57.4 °F 95% 29.74 in 10.0 mi SW 4.6 mph - N/A   Overcast
7:15 PM 58.6 °F 57.4 °F 96% 29.74 in 10.0 mi SSW 6.9 mph - N/A   Overcast
7:35 PM 58.6 °F 57.4 °F 96% 29.73 in 10.0 mi SSW 5.8 mph - N/A   Scattered Clouds
7:55 PM 58.5 °F 57.4 °F 96% 29.72 in 10.0 mi SSW 6.9 mph - N/A   Clear
8:15 PM 58.6 °F 57.4 °F 96% 29.72 in 10.0 mi South 4.6 mph - N/A   Clear
8:35 PM 58.5 °F 57.2 °F 96% 29.72 in 10.0 mi SSW 3.5 mph - N/A   Scattered Clouds
8:55 PM 58.3 °F 57.2 °F 96% 29.72 in 10.0 mi South 8.1 mph - N/A   Scattered Clouds
9:15 PM 58.3 °F 57.2 °F 96% 29.71 in 10.0 mi South 6.9 mph - N/A   Mostly Cloudy
9:55 PM 59.0 °F 57.2 °F 94% 29.72 in 10.0 mi SSW 5.8 mph - N/A   Overcast
10:15 PM 58.5 °F 57.0 °F 95% 29.73 in 10.0 mi SSW 6.9 mph - N/A   Overcast
10:35 PM 58.1 °F 56.7 °F 95% 29.72 in 10.0 mi SSW 8.1 mph - N/A   Mostly Cloudy
10:55 PM 58.1 °F 56.5 °F 94% 29.72 in 10.0 mi SSW 5.8 mph - N/A   Mostly Cloudy
11:15 PM 58.3 °F 56.7 °F 94% 29.72 in 10.0 mi SSW 5.8 mph - N/A   Overcast
11:35 PM 58.1 °F 56.5 °F 94% 29.73 in 10.0 mi SW 5.8 mph - N/A   Overcast
11:55 PM 58.3 °F 56.7 °F 94% 29.74 in 10.0 mi SSW 3.5 mph - N/A   Overcast